• Em Portugal
  • Lista de países
  • Para 7 dias
  • Temperatura da água
  • Mapas de satélite
  • Mapa do tempo
  • Widgets de tempo
  • user-avatar
    Iniciar Sessão

    Previsão horária em Rîbniţa

    Hoje, 18 Fevereiro, Domingo

    Tempo Temperatura Precipitação Vento Pressão Humidade
    00:00 -1°C° 0 mm 1 m/s 758 mmHg 92%
    01:00 -2°C° 0 mm 0 m/s 758 mmHg 91%
    02:00 -2°C° 0 mm 0 m/s 757 mmHg 91%
    03:00 -2°C° 0 mm 0 m/s 757 mmHg 91%
    04:00 -2°C° 0 mm 0 m/s 757 mmHg 91%
    05:00 -2°C° 0 mm 0 m/s 757 mmHg 91%
    06:00 -2°C° 0 mm 0 m/s 757 mmHg 91%
    07:00 -2°C° 0 mm 0 m/s 757 mmHg 90%
    08:00 -1°C° 0 mm 0 m/s 757 mmHg 90%
    09:00 0°C° 0 mm 1 m/s 757 mmHg 88%
    10:00 +1°C° 0 mm 1 m/s 757 mmHg 86%
    11:00 +2°C° 0 mm 1 m/s 757 mmHg 84%
    12:00 +2°C° 0 mm 1 m/s 757 mmHg 83%
    13:00 +3°C° 0 mm 1 m/s 757 mmHg 81%
    14:00 +3°C° 0 mm 1 m/s 757 mmHg 80%
    15:00 +3°C° 0 mm 1 m/s 757 mmHg 82%
    16:00 +2°C° 0 mm 1 m/s 757 mmHg 84%
    17:00 +2°C° 0 mm 1 m/s 757 mmHg 86%
    18:00 +2°C° 0 mm 1 m/s 757 mmHg 87%
    19:00 +1°C° 0 mm 1 m/s 757 mmHg 89%
    20:00 +1°C° 0 mm 1 m/s 757 mmHg 90%
    21:00 +1°C° 0,1 mm 1 m/s 757 mmHg 91%
    22:00 -1°C° 0,1 mm 2 m/s 757 mmHg 92%
    23:00 -1°C° 0,1 mm 2 m/s 758 mmHg 93%

    Amanhã, 19 Fevereiro, Segunda-feira

    Tempo Temperatura Precipitação Vento Pressão Humidade
    00:00 -2°C° 0 mm 2 m/s 758 mmHg 93%
    01:00 -2°C° 0 mm 2 m/s 758 mmHg 94%
    02:00 -2°C° 0 mm 2 m/s 758 mmHg 94%
    03:00 -2°C° 0 mm 2 m/s 758 mmHg 94%
    04:00 -4°C° 0 mm 3 m/s 758 mmHg 94%
    05:00 -4°C° 0 mm 3 m/s 758 mmHg 93%
    06:00 -4°C° 0 mm 3 m/s 758 mmHg 91%
    07:00 -4°C° 0 mm 3 m/s 759 mmHg 89%
    08:00 -4°C° 0 mm 3 m/s 759 mmHg 88%
    09:00 -4°C° 0 mm 3 m/s 759 mmHg 83%
    10:00 -2°C° 0 mm 3 m/s 759 mmHg 79%
    11:00 -2°C° 0 mm 3 m/s 759 mmHg 74%
    12:00 -1°C° 0 mm 3 m/s 759 mmHg 72%
    13:00 -1°C° 0 mm 3 m/s 759 mmHg 70%
    14:00 -1°C° 0 mm 3 m/s 759 mmHg 68%
    15:00 -1°C° 0 mm 3 m/s 759 mmHg 70%
    16:00 -2°C° 0 mm 2 m/s 759 mmHg 72%
    17:00 -2°C° 0 mm 2 m/s 759 mmHg 74%
    18:00 -3°C° 0 mm 2 m/s 759 mmHg 77%
    19:00 -3°C° 0 mm 2 m/s 759 mmHg 79%
    20:00 -4°C° 0 mm 2 m/s 760 mmHg 82%
    21:00 -4°C° 0 mm 2 m/s 760 mmHg 82%
    22:00 -4°C° 0 mm 2 m/s 760 mmHg 83%
    23:00 -4°C° 0 mm 2 m/s 760 mmHg 84%

    Depois de amanhã, 20 Fevereiro, Terça-feira

    Tempo Temperatura Precipitação Vento Pressão Humidade
    00:00 -3°C° 0 mm 1 m/s 760 mmHg 83%
    01:00 -3°C° 0 mm 1 m/s 760 mmHg 83%
    02:00 -3°C° 0 mm 1 m/s 759 mmHg 83%
    03:00 -3°C° 0 mm 1 m/s 759 mmHg 83%
    04:00 -3°C° 0 mm 1 m/s 759 mmHg 83%
    05:00 -3°C° 0 mm 1 m/s 759 mmHg 83%
    06:00 -3°C° 0 mm 1 m/s 759 mmHg 82%
    07:00 -5°C° 0 mm 2 m/s 759 mmHg 82%
    08:00 -5°C° 0 mm 2 m/s 759 mmHg 81%
    09:00 -4°C° 0 mm 2 m/s 759 mmHg 76%
    10:00 -3°C° 0 mm 2 m/s 759 mmHg 71%
    11:00 -2°C° 0 mm 3 m/s 759 mmHg 65%
    12:00 -2°C° 0 mm 3 m/s 759 mmHg 63%
    13:00 -1°C° 0 mm 3 m/s 758 mmHg 60%
    14:00 0°C° 0 mm 3 m/s 758 mmHg 58%
    15:00 -1°C° 0 mm 3 m/s 758 mmHg 60%
    16:00 -1°C° 0 mm 2 m/s 758 mmHg 63%
    17:00 -1°C° 0 mm 2 m/s 757 mmHg 66%
    18:00 -2°C° 0 mm 2 m/s 757 mmHg 68%
    19:00 -2°C° 0 mm 2 m/s 757 mmHg 70%
    20:00 -4°C° 0 mm 3 m/s 757 mmHg 72%
    21:00 -4°C° 0 mm 3 m/s 757 mmHg 73%
    22:00 -4°C° 0 mm 3 m/s 757 mmHg 74%
    23:00 -4°C° 0 mm 3 m/s 757 mmHg 75%

    21 Fevereiro, Quarta-feira

    Tempo Temperatura Precipitação Vento Pressão Humidade
    00:00 -4°C° 0 mm 3 m/s 757 mmHg 76%
    01:00 -4°C° 0 mm 3 m/s 757 mmHg 76%
    02:00 -4°C° 0 mm 3 m/s 757 mmHg 77%
    03:00 -4°C° 0 mm 3 m/s 757 mmHg 78%
    04:00 -4°C° 0 mm 3 m/s 757 mmHg 78%
    05:00 -4°C° 0 mm 3 m/s 756 mmHg 79%
    06:00 -4°C° 0 mm 3 m/s 756 mmHg 78%
    07:00 -4°C° 0 mm 4 m/s 756 mmHg 77%
    08:00 -4°C° 0 mm 4 m/s 756 mmHg 77%
    09:00 -3°C° 0 mm 4 m/s 756 mmHg 72%
    10:00 -2°C° 0 mm 5 m/s 756 mmHg 68%
    11:00 -1°C° 0 mm 5 m/s 756 mmHg 64%
    12:00 -1°C° 0 mm 5 m/s 756 mmHg 62%
    13:00 0°C° 0 mm 5 m/s 755 mmHg 60%
    14:00 0°C° 0 mm 4 m/s 755 mmHg 58%
    15:00 0°C° 0 mm 4 m/s 755 mmHg 61%
    16:00 0°C° 0 mm 3 m/s 755 mmHg 64%
    17:00 0°C° 0 mm 3 m/s 755 mmHg 67%
    18:00 0°C° 0 mm 3 m/s 755 mmHg 69%
    19:00 -1°C° 0 mm 3 m/s 755 mmHg 71%
    20:00 -1°C° 0 mm 3 m/s 755 mmHg 73%
    21:00 -1°C° 0 mm 3 m/s 755 mmHg 73%
    22:00 -1°C° 0 mm 3 m/s 755 mmHg 74%
    23:00 -2°C° 0 mm 3 m/s 755 mmHg 74%

    22 Fevereiro, Quinta-feira

    Tempo Temperatura Precipitação Vento Pressão Humidade
    00:00 -2°C° 0 mm 3 m/s 755 mmHg 75%
    01:00 -2°C° 0 mm 3 m/s 755 mmHg 76%
    02:00 -2°C° 0 mm 3 m/s 755 mmHg 77%
    03:00 -2°C° 0 mm 3 m/s 755 mmHg 77%
    04:00 -4°C° 0 mm 3 m/s 755 mmHg 77%
    05:00 -4°C° 0 mm 3 m/s 754 mmHg 78%
    06:00 -4°C° 0 mm 3 m/s 754 mmHg 77%
    07:00 -4°C° 0 mm 4 m/s 755 mmHg 76%
    08:00 -4°C° 0 mm 4 m/s 755 mmHg 75%
    09:00 -3°C° 0 mm 4 m/s 755 mmHg 71%
    10:00 -2°C° 0 mm 4 m/s 754 mmHg 67%
    11:00 -1°C° 0 mm 5 m/s 754 mmHg 64%
    12:00 -1°C° 0 mm 5 m/s 754 mmHg 63%
    13:00 0°C° 0 mm 5 m/s 754 mmHg 62%
    14:00 +1°C° 0 mm 4 m/s 753 mmHg 61%
    15:00 0°C° 0 mm 4 m/s 753 mmHg 65%
    16:00 0°C° 0 mm 4 m/s 753 mmHg 69%
    17:00 +1°C° 0 mm 3 m/s 752 mmHg 73%
    18:00 0°C° 0 mm 3 m/s 752 mmHg 75%
    19:00 -1°C° 0 mm 4 m/s 752 mmHg 77%
    20:00 -2°C° 0 mm 4 m/s 752 mmHg 79%
    21:00 -2°C° 0 mm 4 m/s 752 mmHg 80%
    22:00 -2°C° 0 mm 4 m/s 752 mmHg 80%
    23:00 -2°C° 0 mm 5 m/s 752 mmHg 81%

    23 Fevereiro, Sexta-feira

    Tempo Temperatura Precipitação Vento Pressão Humidade
    00:00 -2°C° 0 mm 5 m/s 751 mmHg 82%
    01:00 -2°C° 0 mm 5 m/s 751 mmHg 84%
    02:00 -2°C° 0 mm 5 m/s 751 mmHg 85%
    03:00 -2°C° 0,2 mm 5 m/s 750 mmHg 87%
    04:00 -2°C° 0,2 mm 5 m/s 750 mmHg 88%
    05:00 -2°C° 0,2 mm 5 m/s 749 mmHg 89%
    06:00 -2°C° 0,5 mm 5 m/s 749 mmHg 90%
    07:00 -2°C° 0,5 mm 5 m/s 749 mmHg 91%
    08:00 -2°C° 0,5 mm 5 m/s 749 mmHg 91%
    09:00 -2°C° 0,5 mm 5 m/s 749 mmHg 92%
    10:00 -1°C° 0,5 mm 5 m/s 748 mmHg 92%
    11:00 -1°C° 0,5 mm 5 m/s 748 mmHg 92%
    12:00 0°C° 0,2 mm 5 m/s 748 mmHg 92%
    13:00 0°C° 0,2 mm 5 m/s 748 mmHg 93%
    14:00 0°C° 0,2 mm 5 m/s 747 mmHg 93%
    15:00 0°C° 0 mm 4 m/s 747 mmHg 93%
    16:00 0°C° 0 mm 4 m/s 747 mmHg 94%
    17:00 0°C° 0 mm 4 m/s 746 mmHg 94%
    18:00 0°C° 0,1 mm 4 m/s 746 mmHg 94%
    19:00 0°C° 0,1 mm 4 m/s 746 mmHg 94%
    20:00 0°C° 0,1 mm 4 m/s 746 mmHg 94%
    21:00 0°C° 0,4 mm 4 m/s 746 mmHg 95%
    22:00 0°C° 0,4 mm 4 m/s 746 mmHg 95%
    23:00 0°C° 0,4 mm 4 m/s 745 mmHg 95%
    Mostrar mais